CW5917 Weather Reports


Display with metric or nautical units.
time (UTC)temp
F
wind
direction
speed
MPH
gust
MPH
rain 1hr
in
rain 24hr
in
rain mn
in
humidity
%
barometer
mb
20260831063519 72 162 3.0 8.0 0.00 0.24 0.00 87 1014.1
20260831062518 72 138 5.0 10.0 0.00 0.24 0.00 87 1014.2
20260831062034 72 167 3.0 10.0 0.00 0.24 0.00 87 1014.1
20260831061532 72 175 4.0 11.0 0.00 0.24 0.00 87 1014.3
20260831061046 72 166 3.0 10.0 0.00 0.24 0.00 87 1014.3
20260831060534 72 194 1.0 10.0 0.00 0.24 0.00 87 1014.4
20260831060033 72 160 4.0 9.0 0.00 0.28 0.00 87 1014.4
20260831055536 72 133 4.0 9.0 0.00 0.28 0.00 87 1014.6
20260831055030 72 185 4.0 8.0 0.00 0.28 0.00 88 1014.7
20260831054532 72 217 5.0 7.0 0.00 0.28 0.00 89 1014.8
20260831054025 72 190 4.0 9.0 0.00 0.28 0.00 90 1014.7
20260831053536 71 180 5.0 9.0 0.00 0.28 0.00 91 1014.7
20260831053028 71 180 5.0 8.0 0.00 0.28 0.00 91 1014.6
20260831052547 70 196 5.0 8.0 0.00 0.28 0.00 92 1014.6
20260831052018 70 213 4.0 7.0 0.00 0.28 0.00 92 1014.6
20260831051537 69 182 3.0 8.0 0.00 0.28 0.00 92 1014.6
20260831051029 70 201 2.0 5.0 0.00 0.28 0.00 91 1014.6
20260831050524 70 201 1.0 5.0 0.00 0.28 0.00 91 1014.7
20260831050027 70 187 3.0 6.0 0.00 0.28 0.28 92 1014.6
20260831045523 70 215 4.0 7.0 0.00 0.28 0.28 92 1014.6
20260831045018 69 217 5.0 7.0 0.00 0.28 0.28 92 1014.4
20260831044534 69 196 3.0 6.0 0.00 0.28 0.28 92 1014.3
20260831044017 69 210 4.0 6.0 0.00 0.28 0.28 92 1014.3
20260831043531 69 200 3.0 6.0 0.00 0.28 0.28 92 1014.5
20260831043019 70 193 3.0 5.0 0.00 0.28 0.28 92 1014.5
20260831042534 70 198 3.0 6.0 0.00 0.28 0.28 92 1014.4
20260831042058 70 197 3.0 6.0 0.00 0.28 0.28 92 1014.3
20260831041539 70 207 3.0 5.0 0.00 0.28 0.28 92 1014.3
20260831040523 70 215 3.0 8.0 0.00 0.28 0.28 92 1014.2
20260831040024 70 215 5.0 8.0 0.00 0.28 0.28 93 1014.2
20260831035532 70 196 4.0 8.0 0.00 0.28 0.28 93 1014.2
20260831035056 70 211 4.0 8.0 0.00 0.28 0.28 93 1014.2
20260831034533 70 182 4.0 6.0 0.00 0.28 0.28 93 1014.1
20260831034028 70 177 3.0 7.0 0.00 0.28 0.28 93 1014.1
20260831033523 70 194 5.0 7.0 0.00 0.28 0.28 93 1014.2
20260831033022 70 215 5.0 8.0 0.00 0.28 0.28 94 1014.2
20260831032531 70 224 4.0 8.0 0.00 0.28 0.28 94 1014.2
20260831032037 70 205 5.0 8.0 0.00 0.28 0.28 94 1014.2
20260831031552 70 202 5.0 9.0 0.00 0.28 0.28 94 1014.4
20260831031026 70 205 5.0 9.0 0.00 0.28 0.28 94 1014.3
20260831030521 70 202 6.0 8.0 0.00 0.28 0.28 94 1014.4
20260831030030 70 208 5.0 7.0 0.02 0.28 0.28 94 1014.4
20260831025524 70 218 4.0 8.0 0.03 0.28 0.28 94 1014.4
20260831025021 70 229 4.0 8.0 0.06 0.28 0.28 94 1014.5
20260831024558 70 246 2.0 4.0 0.07 0.28 0.28 94 1014.4
20260831024049 70 246 1.0 4.0 0.08 0.28 0.28 94 1014.5
20260831023519 70 246 2.0 4.0 0.09 0.28 0.28 94 1014.5
20260831023016 70 246 0.0 3.0 0.09 0.28 0.28 94 1014.6
20260831022530 70 246 1.0 3.0 0.10 0.28 0.28 94 1014.7
20260831022036 70 246 0.0 3.0 0.10 0.28 0.28 94 1014.6
20260831021545 70 167 1.0 10.0 0.10 0.28 0.28 94 1014.5
20260831021021 70 167 1.0 10.0 0.10 0.28 0.28 94 1014.1
20260831020529 70 188 4.0 10.0 0.10 0.28 0.28 94 1014.1
20260831020030 70 230 6.0 11.0 0.08 0.26 0.26 94 1014.2
20260831015524 70 140 5.0 11.0 0.07 0.25 0.25 93 1013.9
20260831015020 70 240 7.0 11.0 0.04 0.22 0.22 93 1014.2
20260831014528 70 211 5.0 8.0 0.03 0.21 0.21 93 1014.3
20260831014022 70 157 1.0 7.0 0.02 0.20 0.20 93 1014.3
20260831013553 70 184 3.0 7.0 0.01 0.19 0.19 93 1014.6
20260831013033 70 255 2.0 4.0 0.01 0.19 0.19 93 1015.1
20260831012521 70 286 1.0 4.0 0.01 0.18 0.18 93 1014.8
20260831012021 70 150 1.0 6.0 0.01 0.18 0.18 93 1014.3
20260831011516 71 124 3.0 7.0 0.01 0.18 0.18 93 1014.5
20260831011033 71 103 3.0 7.0 0.01 0.18 0.18 92 1014.4
20260831010558 71 148 1.0 5.0 0.01 0.18 0.18 92 1014.5
20260831010020 71 186 2.0 7.0 0.01 0.18 0.18 92 1014.3
20260831005535 71 149 4.0 7.0 0.01 0.18 0.18 92 1014.3
20260831005023 71 130 4.0 7.0 0.01 0.18 0.18 92 1014.0
20260831004549 71 127 4.0 7.0 0.01 0.18 0.18 92 1014.2
20260831004023 71 161 1.0 9.0 0.01 0.18 0.18 91 1014.4
20260831003519 71 194 2.0 4.0 0.01 0.18 0.18 91 1014.9
20260831003034 71 209 2.0 7.0 0.00 0.17 0.17 91 1015.0
20260831002526 71 271 2.0 10.0 0.00 0.17 0.17 91 1015.0
20260831002032 71 194 4.0 10.0 0.00 0.17 0.17 91 1014.7
20260831001530 71 215 5.0 13.0 0.00 0.17 0.17 91 1014.5
20260831001025 71 198 8.0 13.0 0.00 0.17 0.17 91 1014.0
20260831000537 71 205 8.0 13.0 0.00 0.17 0.17 91 1013.8
20260831000017 71 190 9.0 12.0 0.00 0.17 0.17 91 1013.9
20260830235529 71 182 6.0 12.0 0.00 0.17 0.17 91 1014.0
20260830235039 71 182 8.0 11.0 0.00 0.17 0.17 91 1014.1
20260830234537 71 199 6.0 12.0 0.00 0.17 0.17 91 1014.0
20260830234031 71 182 8.0 15.0 0.00 0.17 0.17 90 1013.8
20260830233544 71 180 9.0 15.0 0.00 0.17 0.17 90 1014.2
20260830233027 71 200 9.0 13.0 0.00 0.17 0.17 90 1014.3
20260830232521 71 214 7.0 10.0 0.00 0.17 0.17 90 1014.4
20260830232033 72 195 6.0 10.0 0.00 0.17 0.17 90 1014.3
20260830231532 72 155 6.0 11.0 0.00 0.17 0.17 90 1014.3
20260830231023 72 188 7.0 10.0 0.00 0.17 0.17 90 1014.2
20260830230528 72 227 6.0 12.0 0.00 0.17 0.17 90 1014.3
20260830230017 72 223 7.0 14.0 0.00 0.17 0.17 90 1014.4
20260830225532 72 204 8.0 15.0 0.00 0.17 0.17 90 1014.2
20260830225024 72 190 8.0 15.0 0.00 0.17 0.17 90 1014.4
20260830224534 72 171 7.0 12.0 0.00 0.17 0.17 90 1014.2
20260830224024 72 213 8.0 12.0 0.00 0.17 0.17 91 1014.1
20260830223519 72 200 5.0 10.0 0.00 0.17 0.17 91 1013.8
20260830223048 72 195 6.0 17.0 0.00 0.17 0.17 91 1013.9
20260830222520 72 215 8.0 17.0 0.00 0.17 0.17 91 1013.9
20260830222017 72 200 6.0 15.0 0.00 0.17 0.17 91 1013.9
20260830221548 72 217 8.0 15.0 0.00 0.17 0.17 91 1013.8
20260830221021 72 222 10.0 13.0 0.00 0.17 0.17 91 1013.8
20260830220517 72 157 7.0 18.0 0.00 0.17 0.17 91 1013.7
20260830220035 72 223 8.0 18.0 0.00 0.17 0.17 91 1013.7
20260830215529 72 201 7.0 16.0 0.00 0.17 0.17 91 1013.7
20260830215023 72 172 8.0 16.0 0.00 0.17 0.17 91 1013.5
20260830214518 72 220 8.0 14.0 0.00 0.17 0.17 91 1013.6
20260830214035 72 192 7.0 14.0 0.00 0.17 0.17 91 1013.7
20260830213519 72 201 6.0 11.0 0.00 0.17 0.17 91 1013.7
20260830213037 72 210 7.0 11.0 0.00 0.17 0.17 91 1013.8
20260830212531 72 178 6.0 9.0 0.00 0.17 0.17 91 1013.7
20260830212024 72 178 6.0 10.0 0.00 0.17 0.17 90 1013.6
20260830211518 72 174 6.0 9.0 0.00 0.17 0.17 90 1013.7
20260830211033 72 211 5.0 10.0 0.00 0.17 0.17 90 1013.5
20260830210518 72 202 6.0 8.0 0.00 0.17 0.17 90 1013.6
20260830210041 72 236 4.0 8.0 0.01 0.19 0.17 90 1013.8
20260830205530 72 198 5.0 11.0 0.01 0.19 0.17 90 1013.9
20260830205020 72 192 5.0 13.0 0.01 0.19 0.17 90 1013.7
20260830204053 71 193 6.0 14.0 0.03 0.19 0.17 91 1013.8
20260830203524 71 196 5.0 10.0 0.03 0.19 0.17 91 1013.7
20260830203031 71 198 6.0 10.0 0.04 0.19 0.17 91 1013.7
20260830202540 71 215 5.0 9.0 0.04 0.19 0.17 91 1013.7
20260830202034 71 194 5.0 8.0 0.04 0.19 0.17 90 1013.7
20260830201541 71 180 5.0 12.0 0.04 0.19 0.17 90 1013.7
20260830201033 71 172 6.0 12.0 0.04 0.19 0.17 90 1013.8
20260830200520 71 185 7.0 18.0 0.05 0.19 0.17 90 1013.7
20260830200036 71 227 10.0 18.0 0.04 0.20 0.16 90 1013.9
20260830195533 71 211 9.0 17.0 0.04 0.20 0.16 90 1014.0
20260830195037 71 189 8.0 16.0 0.04 0.20 0.16 90 1014.1
20260830194534 71 182 9.0 16.0 0.05 0.19 0.15 90 1014.1
20260830194022 71 202 11.0 18.0 0.06 0.18 0.14 90 1014.0
20260830193557 71 213 10.0 18.0 0.07 0.18 0.14 90 1014.1
20260830193035 71 213 10.0 14.0 0.07 0.17 0.13 90 1014.0
20260830192528 71 207 9.0 13.0 0.07 0.17 0.13 90 1013.9
20260830192044 71 217 9.0 13.0 0.07 0.17 0.13 90 1013.9
20260830191531 71 178 7.0 11.0 0.08 0.17 0.13 89 1013.9
20260830191046 71 217 7.0 14.0 0.09 0.17 0.13 89 1013.7
20260830190519 72 216 8.0 14.0 0.08 0.16 0.12 88 1014.0
20260830190021 72 193 8.0 10.0 0.08 0.16 0.12 88 1014.4
20260830185533 72 234 5.0 10.0 0.08 0.16 0.12 88 1014.6
20260830185037 72 238 4.0 17.0 0.08 0.16 0.12 87 1014.9
20260830184520 72 228 10.0 17.0 0.05 0.13 0.10 86 1015.2
20260830184034 73 257 4.0 9.0 0.04 0.12 0.08 86 1015.2
20260830183530 73 250 6.0 13.0 0.03 0.11 0.07 84 1015.3
20260830183021 74 219 9.0 14.0 0.02 0.10 0.06 83 1015.1
20260830182535 74 215 8.0 17.0 0.02 0.10 0.06 82 1015.0
20260830182058 75 215 8.0 19.0 0.02 0.10 0.06 80 1014.9
20260830181525 77 182 14.0 18.0 0.00 0.08 0.04 77 1015.0
20260830181037 78 217 12.0 18.0 0.00 0.08 0.04 74 1014.8
20260830180529 78 202 10.0 16.0 0.00 0.08 0.04 72 1014.8
20260830180029 79 233 9.0 15.0 0.00 0.08 0.04 72 1014.7
20260830175541 79 219 11.0 18.0 0.00 0.08 0.04 71 1014.5
20260830175035 79 198 10.0 17.0 0.00 0.08 0.04 71 1014.4
20260830174534 79 222 9.0 16.0 0.00 0.08 0.04 71 1014.2
20260830174029 79 192 10.0 19.0 0.00 0.08 0.04 70 1014.1
20260830173523 79 174 10.0 18.0 0.00 0.08 0.04 71 1014.1
20260830173020 78 221 11.0 20.0 0.00 0.08 0.04 70 1014.0
20260830172531 78 215 12.0 20.0 0.00 0.08 0.04 70 1014.0
20260830172018 78 229 12.0 18.0 0.00 0.08 0.04 70 1013.8
20260830171517 79 224 10.0 16.0 0.00 0.08 0.04 69 1013.8
20260830171033 79 213 8.0 19.0 0.00 0.08 0.04 69 1013.7
20260830170530 79 221 12.0 19.0 0.00 0.08 0.04 68 1013.5
20260830170020 80 227 13.0 21.0 0.00 0.08 0.04 67 1013.7
20260830165531 80 223 14.0 21.0 0.00 0.08 0.04 66 1013.7
20260830165032 80 215 13.0 19.0 0.00 0.08 0.04 66 1013.7
20260830164531 81 223 13.0 19.0 0.00 0.08 0.04 66 1013.5
20260830164027 81 230 9.0 24.0 0.00 0.08 0.04 67 1013.5
20260830163522 81 222 11.0 23.0 0.00 0.08 0.04 67 1013.6
20260830163021 81 216 13.0 23.0 0.00 0.08 0.04 67 1013.5
20260830162531 80 223 12.0 23.0 0.00 0.08 0.04 67 1013.7
20260830162017 80 180 14.0 23.0 0.00 0.08 0.04 67 1013.8
20260830161535 80 214 14.0 21.0 0.00 0.08 0.04 67 1013.7
20260830161031 80 234 11.0 19.0 0.00 0.08 0.04 68 1013.7
20260830160517 80 223 12.0 22.0 0.00 0.08 0.04 67 1013.7
20260830160036 79 215 15.0 22.0 0.00 0.08 0.04 67 1013.6
20260830155526 79 207 13.0 21.0 0.00 0.08 0.04 68 1013.6
20260830155034 79 161 15.0 21.0 0.00 0.08 0.04 68 1013.4
20260830154532 79 207 14.0 18.0 0.00 0.08 0.04 69 1013.4
20260830154058 79 222 13.0 19.0 0.00 0.08 0.04 69 1013.4
20260830153533 78 192 12.0 23.0 0.00 0.08 0.04 69 1013.4
20260830153019 78 212 15.0 23.0 0.00 0.08 0.04 69 1013.3
20260830152533 78 200 12.0 25.0 0.00 0.08 0.04 69 1013.4
20260830152017 78 182 15.0 22.0 0.00 0.08 0.04 69 1013.3
20260830151524 78 209 15.0 23.0 0.00 0.08 0.04 69 1013.3
20260830151017 78 193 8.0 16.0 0.00 0.08 0.04 71 1013.4
20260830150520 78 211 11.0 20.0 0.00 0.08 0.04 70 1013.3
20260830150019 77 213 14.0 23.0 0.00 0.08 0.04 70 1013.4
20260830145534 77 202 15.0 23.0 0.00 0.08 0.04 71 1013.4
20260830145029 77 221 11.0 22.0 0.00 0.08 0.04 72 1013.3
20260830144519 76 175 14.0 22.0 0.00 0.08 0.04 72 1013.1
20260830144032 76 183 15.0 25.0 0.00 0.08 0.04 72 1013.2
20260830143522 76 211 14.0 21.0 0.00 0.08 0.04 72 1013.2
20260830143016 76 205 11.0 25.0 0.00 0.08 0.04 73 1013.3
20260830142552 76 213 15.0 25.0 0.00 0.08 0.04 72 1013.2
20260830142058 76 205 11.0 24.0 0.00 0.08 0.04 73 1013.2
20260830141555 76 194 13.0 20.0 0.00 0.08 0.04 73 1013.3
20260830141035 76 225 16.0 22.0 0.00 0.08 0.04 72 1013.2
20260830140531 75 182 12.0 20.0 0.00 0.08 0.04 73 1013.2
20260830140032 75 182 11.0 17.0 0.00 0.08 0.04 73 1013.2
20260830135525 75 206 12.0 17.0 0.00 0.08 0.04 74 1013.2
20260830135043 75 219 13.0 24.0 0.00 0.08 0.04 73 1013.2
20260830134526 74 221 14.0 21.0 0.00 0.08 0.04 74 1013.3
20260830134019 74 228 12.0 20.0 0.00 0.08 0.04 74 1013.4
20260830133556 74 211 13.0 23.0 0.00 0.08 0.04 73 1013.4
20260830133034 75 230 12.0 19.0 0.00 0.08 0.04 74 1013.3
20260830132529 74 223 11.0 19.0 0.00 0.08 0.04 74 1013.4
20260830132040 74 194 11.0 19.0 0.00 0.08 0.04 74 1013.5
20260830131536 74 214 12.0 20.0 0.00 0.08 0.04 74 1013.5
20260830131052 74 202 11.0 20.0 0.00 0.08 0.04 75 1013.4
20260830130525 73 215 12.0 20.0 0.00 0.08 0.04 75 1013.5
20260830130029 73 239 13.0 22.0 0.00 0.08 0.04 74 1013.4
20260830125540 74 199 11.0 22.0 0.00 0.08 0.04 75 1013.4
20260830125053 73 221 10.0 17.0 0.00 0.08 0.04 75 1013.4
20260830124542 73 202 11.0 17.0 0.00 0.08 0.04 75 1013.4
20260830124035 73 196 12.0 17.0 0.00 0.08 0.04 76 1013.5
20260830123522 72 220 9.0 17.0 0.00 0.08 0.04 77 1013.4
20260830123016 72 193 10.0 19.0 0.00 0.08 0.04 78 1013.3
20260830122553 72 192 9.0 19.0 0.00 0.08 0.04 78 1013.3
20260830122020 72 211 9.0 16.0 0.00 0.08 0.04 78 1013.5
20260830121519 72 212 12.0 16.0 0.00 0.08 0.04 79 1013.4
20260830121034 71 173 10.0 16.0 0.00 0.08 0.04 79 1013.3
20260830120522 71 219 9.0 21.0 0.00 0.08 0.04 80 1013.3
20260830120016 71 216 12.0 21.0 0.00 0.08 0.04 80 1013.3
20260830115552 71 208 11.0 18.0 0.00 0.08 0.04 81 1013.2
20260830115034 70 211 12.0 17.0 0.00 0.08 0.04 82 1013.2
20260830114530 70 185 9.0 16.0 0.00 0.08 0.04 82 1013.2
20260830114022 70 214 8.0 11.0 0.00 0.08 0.04 82 1013.2
20260830113533 70 213 9.0 14.0 0.00 0.08 0.04 82 1013.2
20260830113024 70 200 8.0 13.0 0.00 0.08 0.04 83 1013.2
20260830112525 70 215 8.0 18.0 0.00 0.08 0.04 83 1013.1
20260830112021 70 227 8.0 18.0 0.00 0.08 0.04 83 1013.0
20260830111516 70 206 10.0 16.0 0.00 0.08 0.04 83 1013.1
20260830111034 70 212 9.0 16.0 0.00 0.08 0.04 83 1013.2
20260830110527 70 223 8.0 15.0 0.00 0.08 0.04 83 1013.1
20260830110029 70 223 8.0 17.0 0.00 0.08 0.04 83 1013.0
20260830105543 70 227 10.0 16.0 0.00 0.08 0.04 83 1013.1
20260830105035 70 181 7.0 14.0 0.00 0.08 0.04 83 1013.1
20260830104532 70 194 10.0 14.0 0.00 0.08 0.04 83 1013.0
20260830104025 70 205 9.0 17.0 0.00 0.08 0.04 83 1013.0
20260830103520 70 190 10.0 20.0 0.00 0.08 0.04 83 1013.0
20260830103037 70 174 8.0 20.0 0.00 0.08 0.04 83 1013.0
20260830102530 70 224 10.0 20.0 0.00 0.08 0.04 83 1012.9
20260830102021 70 216 9.0 16.0 0.00 0.08 0.04 83 1013.0
20260830101527 70 173 9.0 16.0 0.00 0.08 0.04 83 1012.9
20260830101021 70 196 10.0 18.0 0.00 0.08 0.04 83 1012.8
20260830100023 70 173 11.0 19.0 0.00 0.08 0.04 83 1012.8
20260830095533 70 192 9.0 17.0 0.00 0.08 0.04 83 1012.9
20260830095017 70 192 9.0 17.0 0.00 0.08 0.04 83 1012.9
20260830094526 70 205 11.0 19.0 0.00 0.08 0.04 83 1013.0
20260830094020 70 159 10.0 19.0 0.00 0.08 0.04 83 1013.1
20260830093517 70 163 11.0 18.0 0.00 0.08 0.04 83 1013.0
20260830093016 70 215 12.0 19.0 0.00 0.08 0.04 83 1013.0
20260830092530 70 209 9.0 16.0 0.00 0.08 0.04 83 1013.0
20260830092035 70 235 10.0 17.0 0.00 0.08 0.04 83 1013.1
20260830091535 70 233 9.0 19.0 0.00 0.08 0.04 83 1013.1
20260830091030 70 207 9.0 19.0 0.00 0.08 0.04 83 1013.1
20260830090525 70 186 10.0 16.0 0.00 0.08 0.04 83 1013.2
20260830090023 70 211 10.0 16.0 0.00 0.08 0.04 83 1013.1
20260830085534 70 214 10.0 16.0 0.00 0.08 0.04 83 1013.1
20260830085032 70 192 10.0 17.0 0.00 0.08 0.04 83 1013.1
20260830084532 70 205 9.0 18.0 0.00 0.08 0.04 83 1013.2
20260830084025 70 212 11.0 19.0 0.00 0.08 0.04 83 1013.1
20260830083519 70 213 10.0 18.0 0.00 0.08 0.04 83 1013.0
20260830083057 70 206 9.0 18.0 0.00 0.08 0.04 83 1013.2
20260830082530 70 184 10.0 16.0 0.00 0.08 0.04 82 1013.1
20260830082033 70 217 10.0 16.0 0.00 0.08 0.04 83 1013.2
20260830081528 70 197 11.0 20.0 0.00 0.08 0.04 83 1013.2
20260830081020 70 204 12.0 19.0 0.00 0.08 0.04 83 1013.3
20260830080531 70 215 11.0 19.0 0.00 0.08 0.04 83 1013.3
20260830080022 70 167 10.0 18.0 0.00 0.08 0.04 84 1013.3
20260830075557 70 200 10.0 17.0 0.00 0.08 0.04 84 1013.5
20260830075030 70 202 8.0 16.0 0.00 0.08 0.04 84 1013.4
20260830074528 70 186 9.0 14.0 0.00 0.08 0.04 85 1013.4
20260830074023 70 167 7.0 15.0 0.00 0.08 0.04 85 1013.4
20260830073535 70 155 9.0 15.0 0.00 0.08 0.04 85 1013.4
20260830073052 70 194 10.0 17.0 0.00 0.08 0.04 85 1013.7
20260830072527 70 158 8.0 17.0 0.00 0.08 0.04 86 1013.6
20260830072023 70 157 9.0 14.0 0.00 0.08 0.04 86 1013.7
20260830071543 69 204 9.0 15.0 0.00 0.08 0.04 87 1013.9
20260830071038 69 212 10.0 14.0 0.00 0.08 0.04 87 1013.8
20260830070529 69 182 9.0 15.0 0.00 0.08 0.04 88 1014.0
20260830070029 69 205 8.0 15.0 0.00 0.08 0.04 88 1014.0
20260830065524 69 176 9.0 14.0 0.00 0.08 0.04 89 1014.0
20260830065020 69 191 8.0 14.0 0.02 0.08 0.04 89 1014.1
20260830064545 69 192 9.0 13.0 0.04 0.08 0.04 89 1014.1
20260830064022 69 180 9.0 14.0 0.04 0.08 0.04 90 1014.2